Tracking 17138 objects as of 2-July-2015
HD Live streaming from Space Station

SL-14 R/B

Track SL-14 R/B now!
10-day predictions
SL-14 R/B is classified as:


NORAD ID: 20466
Int'l Code: 1990-010B
Perigee: 618.4 km
Apogee: 647.6 km
Inclination: 82.5 °
Period: 97.2 minutes
Semi major axis: 7004 km
RCS: 4.6031 m2 (large)
Launch date: January 30, 1990
Source: Commonwealth of Independent States (former USSR) (CIS)

Note: This is a ROCKET BODY
Your satellite tracking list
Your tracking list is empty





NASA's NSSDC Master Catalog

Two Line Element Set (TLE):
1 20466U 90010B   15182.08620638  .00000144  00000-0  15480-4 0  9999
2 20466 082.5038 323.4817 0020879 169.3995 190.7663 14.81094793371348

Source of the keplerian elements: AFSPC

N2YO: 225